When you browse on this site, cookies collect data to enhance your experience and personalize the content and advertising you see.
Visit our Privacy Policy to learn more. By continuing to use the site, you agree to this use of cookies and data.
  • In Sweden
  • List of Countries
  • For 7 days
  • Water Temperature
  • Weather Map
  • Weather Widgets
  • user-avatar
    Login

    Hourly Weather Chester

    Today, 6 June, Saturday

    Time Temperature Precipitation Wind Pressure Humidity
    00:00 +24°C° 0.9 mm 2 mps 757 mmHg 90%
    01:00 +24°C° 0 mm 1 mps 757 mmHg 90%
    02:00 +24°C° 0.2 mm 1 mps 757 mmHg 90%
    03:00 +23°C° 0.2 mm 1 mps 756 mmHg 90%
    04:00 +23°C° 0.2 mm 1 mps 756 mmHg 90%
    05:00 +24°C° 0 mm 2 mps 756 mmHg 86%
    06:00 +24°C° 0 mm 2 mps 756 mmHg 82%
    07:00 +25°C° 0 mm 2 mps 757 mmHg 79%
    08:00 +27°C° 0.1 mm 2 mps 756 mmHg 73%
    09:00 +28°C° 0.1 mm 3 mps 756 mmHg 67%
    10:00 +30°C° 0.1 mm 3 mps 756 mmHg 61%
    11:00 +32°C° 0.1 mm 4 mps 756 mmHg 57%
    12:00 +33°C° 0.1 mm 4 mps 755 mmHg 53%
    13:00 +34°C° 0.1 mm 5 mps 755 mmHg 48%
    14:00 +33°C° 0 mm 5 mps 755 mmHg 47%
    15:00 +33°C° 0 mm 5 mps 755 mmHg 45%
    16:00 +33°C° 0 mm 6 mps 754 mmHg 43%
    17:00 +32°C° 0 mm 5 mps 755 mmHg 42%
    18:00 +29°C° 0 mm 5 mps 755 mmHg 40%
    19:00 +28°C° 0 mm 5 mps 755 mmHg 39%
    20:00 +27°C° 0 mm 5 mps 756 mmHg 40%
    21:00 +26°C° 0 mm 4 mps 756 mmHg 41%
    22:00 +23°C° 0 mm 4 mps 757 mmHg 42%
    23:00 +23°C° 0 mm 4 mps 757 mmHg 45%

    Tomorrow, 7 June, Sunday

    Time Temperature Precipitation Wind Pressure Humidity
    00:00 +22°C° 0 mm 4 mps 757 mmHg 49%
    01:00 +21°C° 0 mm 3 mps 757 mmHg 53%
    02:00 +20°C° 0 mm 3 mps 757 mmHg 55%
    03:00 +19°C° 0 mm 4 mps 757 mmHg 58%
    04:00 +19°C° 0 mm 4 mps 757 mmHg 60%
    05:00 +19°C° 0 mm 4 mps 758 mmHg 58%
    06:00 +19°C° 0 mm 4 mps 758 mmHg 56%
    07:00 +20°C° 0 mm 5 mps 759 mmHg 54%
    08:00 +21°C° 0 mm 5 mps 759 mmHg 50%
    09:00 +22°C° 0 mm 5 mps 759 mmHg 46%
    10:00 +23°C° 0 mm 6 mps 759 mmHg 43%
    11:00 +24°C° 0 mm 6 mps 759 mmHg 40%
    12:00 +26°C° 0 mm 6 mps 758 mmHg 38%
    13:00 +27°C° 0 mm 6 mps 758 mmHg 36%
    14:00 +27°C° 0 mm 5 mps 758 mmHg 37%
    15:00 +27°C° 0 mm 5 mps 758 mmHg 37%
    16:00 +27°C° 0 mm 5 mps 757 mmHg 38%
    17:00 +26°C° 0 mm 5 mps 758 mmHg 40%
    18:00 +25°C° 0 mm 4 mps 758 mmHg 43%
    19:00 +23°C° 0 mm 4 mps 759 mmHg 45%
    20:00 +22°C° 0 mm 4 mps 759 mmHg 46%
    21:00 +21°C° 0 mm 4 mps 760 mmHg 47%
    22:00 +20°C° 0 mm 4 mps 760 mmHg 47%
    23:00 +19°C° 0 mm 3 mps 761 mmHg 50%

    Day after tomorrow, 8 June, Monday

    Time Temperature Precipitation Wind Pressure Humidity
    00:00 +18°C° 0 mm 3 mps 761 mmHg 53%
    01:00 +18°C° 0 mm 3 mps 761 mmHg 56%
    02:00 +17°C° 0 mm 3 mps 761 mmHg 57%
    03:00 +17°C° 0 mm 3 mps 761 mmHg 58%
    04:00 +16°C° 0 mm 3 mps 761 mmHg 59%
    05:00 +17°C° 0 mm 3 mps 761 mmHg 57%
    06:00 +18°C° 0 mm 3 mps 762 mmHg 55%
    07:00 +19°C° 0 mm 3 mps 762 mmHg 53%
    08:00 +20°C° 0 mm 3 mps 762 mmHg 47%
    09:00 +23°C° 0 mm 2 mps 762 mmHg 41%
    10:00 +25°C° 0 mm 2 mps 762 mmHg 35%
    11:00 +26°C° 0 mm 2 mps 762 mmHg 34%
    12:00 +27°C° 0 mm 2 mps 762 mmHg 32%
    13:00 +28°C° 0 mm 2 mps 762 mmHg 31%
    14:00 +28°C° 0 mm 3 mps 761 mmHg 33%
    15:00 +28°C° 0 mm 3 mps 761 mmHg 34%
    16:00 +28°C° 0 mm 3 mps 761 mmHg 36%
    17:00 +27°C° 0 mm 3 mps 761 mmHg 41%
    18:00 +25°C° 0 mm 3 mps 761 mmHg 46%
    19:00 +24°C° 0 mm 3 mps 761 mmHg 50%
    20:00 +24°C° 0 mm 2 mps 761 mmHg 52%
    21:00 +23°C° 0 mm 2 mps 762 mmHg 54%
    22:00 +21°C° 0 mm 2 mps 762 mmHg 56%
    23:00 +20°C° 0 mm 2 mps 762 mmHg 57%

    9 June, Tuesday

    Time Temperature Precipitation Wind Pressure Humidity
    00:00 +21°C° 0 mm 1 mps 762 mmHg 59%
    01:00 +20°C° 0 mm 1 mps 762 mmHg 60%
    02:00 +20°C° 0 mm 1 mps 762 mmHg 61%
    03:00 +20°C° 0 mm 1 mps 762 mmHg 63%
    04:00 +19°C° 0 mm 1 mps 762 mmHg 64%
    05:00 +20°C° 0 mm 1 mps 762 mmHg 62%
    06:00 +21°C° 0 mm 1 mps 763 mmHg 60%
    07:00 +22°C° 0 mm 1 mps 763 mmHg 58%
    08:00 +24°C° 0 mm 2 mps 763 mmHg 52%
    09:00 +26°C° 0 mm 2 mps 763 mmHg 47%
    10:00 +28°C° 0 mm 2 mps 763 mmHg 41%
    11:00 +28°C° 0 mm 2 mps 763 mmHg 40%
    12:00 +29°C° 0 mm 3 mps 762 mmHg 38%
    13:00 +30°C° 0 mm 3 mps 762 mmHg 36%
    14:00 +30°C° 0 mm 3 mps 762 mmHg 38%
    15:00 +30°C° 0 mm 3 mps 762 mmHg 40%
    16:00 +30°C° 0 mm 4 mps 761 mmHg 42%
    17:00 +28°C° 0 mm 4 mps 762 mmHg 48%
    18:00 +27°C° 0 mm 4 mps 762 mmHg 53%
    19:00 +25°C° 0 mm 4 mps 762 mmHg 58%
    20:00 +23°C° 0 mm 4 mps 762 mmHg 58%
    21:00 +22°C° 0 mm 4 mps 762 mmHg 58%
    22:00 +21°C° 0 mm 4 mps 762 mmHg 58%
    23:00 +21°C° 0 mm 4 mps 762 mmHg 59%

    10 June, Wednesday

    Time Temperature Precipitation Wind Pressure Humidity
    00:00 +20°C° 0 mm 3 mps 762 mmHg 61%
    01:00 +20°C° 0 mm 3 mps 762 mmHg 63%
    02:00 +20°C° 0 mm 3 mps 762 mmHg 65%
    03:00 +20°C° 0 mm 3 mps 762 mmHg 68%
    04:00 +20°C° 0 mm 3 mps 762 mmHg 70%
    05:00 +21°C° 0 mm 4 mps 762 mmHg 73%
    06:00 +22°C° 0 mm 4 mps 762 mmHg 76%
    07:00 +23°C° 0 mm 5 mps 762 mmHg 79%
    08:00 +25°C° 0 mm 5 mps 762 mmHg 74%
    09:00 +27°C° 0 mm 5 mps 762 mmHg 69%
    10:00 +28°C° 0 mm 6 mps 761 mmHg 64%
    11:00 +29°C° 0 mm 6 mps 761 mmHg 64%
    12:00 +29°C° 0 mm 6 mps 761 mmHg 64%
    13:00 +29°C° 0 mm 6 mps 761 mmHg 64%
    14:00 +29°C° 0 mm 6 mps 761 mmHg 65%
    15:00 +29°C° 0 mm 6 mps 760 mmHg 66%
    16:00 +28°C° 0 mm 6 mps 760 mmHg 67%
    17:00 +28°C° 0 mm 6 mps 760 mmHg 68%
    18:00 +27°C° 0 mm 6 mps 760 mmHg 70%
    19:00 +26°C° 0 mm 6 mps 760 mmHg 72%
    20:00 +26°C° 0 mm 6 mps 761 mmHg 73%
    21:00 +24°C° 0 mm 6 mps 761 mmHg 73%
    22:00 +25°C° 0 mm 5 mps 761 mmHg 74%
    23:00 +25°C° 0.2 mm 5 mps 761 mmHg 78%

    11 June, Thursday

    Time Temperature Precipitation Wind Pressure Humidity
    00:00 +23°C° 0.2 mm 5 mps 761 mmHg 81%
    01:00 +23°C° 0.2 mm 5 mps 761 mmHg 85%
    02:00 +23°C° 0.6 mm 4 mps 761 mmHg 83%
    03:00 +23°C° 0.6 mm 4 mps 761 mmHg 82%
    04:00 +22°C° 0.6 mm 3 mps 762 mmHg 81%
    05:00 +22°C° 0.1 mm 3 mps 762 mmHg 76%
    06:00 +23°C° 0.1 mm 2 mps 762 mmHg 70%
    07:00 +23°C° 0.1 mm 2 mps 763 mmHg 65%
    08:00 +25°C° 0 mm 2 mps 763 mmHg 59%
    09:00 +26°C° 0 mm 2 mps 763 mmHg 54%
    10:00 +27°C° 0 mm 3 mps 763 mmHg 48%
    11:00 +28°C° 0 mm 3 mps 763 mmHg 45%
    12:00 +29°C° 0 mm 3 mps 763 mmHg 42%
    13:00 +30°C° 0 mm 3 mps 762 mmHg 38%
    14:00 +30°C° 0 mm 3 mps 762 mmHg 39%
    15:00 +30°C° 0 mm 4 mps 762 mmHg 40%
    16:00 +30°C° 0 mm 4 mps 762 mmHg 41%
    17:00 +29°C° 0 mm 3 mps 762 mmHg 44%
    18:00 +28°C° 0 mm 3 mps 762 mmHg 47%
    19:00 +27°C° 0 mm 2 mps 762 mmHg 50%
    20:00 +26°C° 0 mm 2 mps 762 mmHg 53%
    21:00 +25°C° 0 mm 2 mps 762 mmHg 56%
    22:00 +25°C° 0 mm 2 mps 763 mmHg 60%
    23:00 +24°C° 0 mm 2 mps 762 mmHg 60%
    Show more